[[{"header":{"parameterUnit":"m.s-1","parameterCategory":1,"la1":30.2991,"la2":30.254,"lo1":-89.0895,"lo2":-89.0444,"dy":0.0017,"dx":0.0017,"nx":28,"ny":28,"refTime":"2025-11-19T09:00:00:Z","depth":0,"parameterNumber":2,"parameterNumberName":"U-component_of_WINDS"},"data":[0,0,0,0,0,0,0,0,0,0,0,0,0,0,0,0,0,0,0,0,0,0,0,0,0,0,0,0,0,0,0,0,0,0,0,0,0,0,0,0,0,0,0,0,0,0,0,0,0,0,0,0,0,0,0,0,0,0,-1.3568,-1.3568,0,-1.3618,-1.3618,-1.3619,-1.3585,-1.3583,-1.3581,-1.358,-1.3633,-1.3636,-1.3639,0,0,0,0,0,0,0,0,0,0,0,0,0,-1.3445,-1.3447,-1.3568,-1.3568,-1.3569,-1.3617,-1.3618,-1.3619,-1.3585,-1.3583,-1.3581,-1.3579,-1.3632,-1.3635,-1.3639,0,0,0,0,0,0,0,0,0,0,0,0,0,-1.3497,-1.3448,-1.3568,-1.3558,-1.3557,-1.3617,-1.3618,-1.3619,-1.3585,-1.3583,-1.3581,-1.3578,-1.3631,-1.3635,-1.3639,-1.3712,0,0,-1.3652,-1.3654,0,0,0,0,0,0,0,0,-1.3494,-1.3501,-1.3559,-1.3559,-1.3558,-1.3592,-1.3594,-1.365,-1.3586,-1.3575,-1.358,-1.3577,-1.3622,-1.3626,-1.3641,-1.3715,-1.3717,-1.3653,-1.3655,-1.3657,-1.3658,0,0,0,0,0,0,0,-1.349,-1.3499,-1.3588,-1.356,-1.3559,-1.3551,-1.3556,-1.3605,-1.3611,-1.3576,-1.3573,-1.3579,-1.3621,-1.3637,-1.3642,-1.3718,-1.3653,-1.3656,-1.3659,-1.3661,-1.3853,-1.3855,0,0,0,0,0,0,-1.3487,-1.3496,-1.3586,-1.3589,-1.352,-1.3555,-1.3561,-1.3584,-1.361,-1.3612,-1.3581,-1.3578,-1.3631,-1.3637,-1.3644,-1.373,-1.3657,-1.3661,-1.3664,-1.385,-1.3853,-1.3856,0,0,0,0,0,0,-1.3485,-1.3496,-1.3584,-1.3542,-1.3553,-1.356,-1.3586,-1.3586,-1.3602,-1.3614,-1.3615,-1.3596,-1.3629,-1.3638,-1.3695,-1.3732,-1.3663,-1.3667,-1.3847,-1.3851,-1.3855,-1.3904,0,0,0,0,0,0,-1.3481,-1.3495,-1.3522,-1.3543,-1.3555,-1.3634,-1.3588,-1.3589,-1.3609,-1.3605,-1.3629,-1.3631,-1.3628,-1.3689,-1.3699,-1.3736,-1.367,-1.3844,-1.3849,-1.3854,-1.3899,-1.3909,-1.3918,0,0,0,0,0,-1.3477,-1.3535,-1.3524,-1.3535,-1.359,-1.3637,-1.3644,-1.3639,-1.3612,-1.364,-1.3648,-1.363,-1.3726,-1.3695,-1.3707,-1.3745,-1.3842,-1.3848,-1.3853,-1.3895,-1.3907,-1.3917,0,0,0,0,0,0,-1.352,-1.3538,-1.3526,-1.3592,-1.3613,-1.3631,-1.3666,-1.3652,-1.3681,-1.3676,-1.367,-1.3675,-1.3735,-1.3746,-1.3711,-1.3817,-1.378,-1.3788,-1.3808,-1.3819,-1.3828,-1.3825,-1.3674,0,0,0,0,0,-1.3537,-1.3573,-1.3587,-1.3644,-1.3655,-1.3659,-1.3679,-1.3673,-1.3695,-1.3704,-1.3716,-1.3739,-1.3773,-1.3797,-1.383,-1.39,-1.3905,-1.3933,-1.3942,-1.3949,-1.3957,-1.3994,-1.4006,-1.3875,-1.3875,-1.3875,0,0,-1.3573,-1.3587,-1.361,-1.3653,-1.3669,-1.3706,-1.3666,-1.3709,-1.3737,-1.3711,-1.3765,-1.3775,-1.3799,-1.3863,-1.3892,-1.3874,-1.3994,-1.3957,-1.3962,-1.3966,-1.4001,-1.4014,-1.4025,-1.3879,-1.3878,-1.3877,0,0,-1.3658,-1.3672,-1.3721,-1.3737,-1.376,-1.3762,-1.3774,-1.3794,-1.3799,-1.3853,-1.3834,-1.3868,-1.3929,-1.3946,-1.3964,-1.4054,-1.4038,-1.4064,-1.4113,-1.4149,-1.4159,-1.4169,-1.42,-1.4212,-1.4072,-1.4072,-1.4072,0,-1.3699,-1.3755,-1.3748,-1.3791,-1.381,-1.3787,-1.3837,-1.3853,-1.3886,-1.39,-1.3879,-1.3954,-1.3969,-1.4037,-1.4058,-1.4073,-1.4086,-1.4062,-1.4158,-1.4168,-1.4176,-1.4206,-1.4218,-1.4075,-1.4075,-1.4074,-1.4074,0,-1.3805,-1.3844,-1.3881,-1.3913,-1.3936,-1.3983,-1.3982,-1.4007,-1.3999,-1.4003,-1.4058,-1.4075,-1.411,-1.4126,-1.4119,-1.4193,-1.418,-1.4159,-1.4122,-1.4192,-1.422,-1.4232,-1.4079,-1.4078,-1.4077,-1.4077,0,0,-1.392,-1.3946,-1.396,-1.3973,-1.3997,-1.4027,-1.4072,-1.4106,-1.4127,-1.4151,-1.4188,-1.4239,-1.4219,-1.4239,-1.4233,-1.4265,-1.4335,-1.424,-1.424,-1.4257,-1.4416,-1.4432,-1.4446,-1.4324,-1.4327,-1.4328,-1.4414,0,-1.4006,-1.4083,-1.4077,-1.4151,-1.4187,-1.4165,-1.4204,-1.4223,-1.4227,-1.4258,-1.4264,-1.43,-1.4271,-1.4282,-1.4313,-1.432,-1.4367,-1.4314,-1.4359,-1.4361,-1.4354,-1.4461,-1.4478,-1.4558,-1.4425,-1.4427,-1.4429,0,-1.4117,-1.4143,-1.422,-1.4237,-1.4252,-1.4287,-1.4317,-1.4347,-1.4368,-1.4369,-1.439,-1.4379,-1.4424,-1.4385,-1.4447,-1.4411,-1.4429,-1.4435,-1.4438,-1.4443,-1.4399,-1.4468,-1.4584,-1.4596,-1.4446,-1.4445,-1.4443,0,-1.4192,-1.4247,-1.43,-1.4312,-1.4334,-1.4359,-1.437,-1.4388,-1.4408,-1.4435,-1.4448,-1.4479,-1.4497,-1.4521,-1.4519,-1.4491,-1.4582,-1.4543,-1.4584,-1.4584,-1.4605,-1.4603,-1.4725,-1.4616,-1.4616,-1.4616,-1.4616,0,-1.4289,-1.4337,-1.4334,-1.4367,-1.4419,-1.4412,-1.4464,-1.4472,-1.4488,-1.4521,-1.4504,-1.4536,-1.4531,-1.4563,-1.4562,-1.4613,-1.4621,-1.4623,-1.4622,-1.4625,-1.4625,-1.4637,-1.4631,-1.4619,-1.4618,-1.4618,-1.4617,0,-1.4383,-1.4383,-1.4439,-1.4454,-1.4459,-1.4497,-1.451,-1.4541,-1.4544,-1.4586,-1.4596,-1.46,-1.4637,-1.4637,-1.4679,-1.4678,-1.474,-1.4733,-1.4733,-1.4732,-1.4773,-1.4769,-1.4907,-1.4925,-1.4804,-1.4805,-1.4806,0,-1.4445,-1.4481,-1.45,-1.4521,-1.4532,-1.4566,-1.4587,-1.458,-1.4602,-1.4628,-1.4655,-1.469,-1.4717,-1.4777,-1.4784,-1.4816,-1.4809,-1.4855,-1.4814,-1.4815,-1.481,-1.4807,-1.4811,-1.4864,-1.4865,-1.4866,-1.4867,0,-1.4555,-1.4553,-1.4582,-1.4612,-1.4636,-1.4659,-1.4681,-1.4699,-1.4695,-1.472,-1.4757,-1.4778,-1.482,-1.4855,-1.4885,-1.4895,-1.4881,-1.488,-1.4891,-1.4894,-1.4892,-1.4893,-1.4755,-1.4877,-1.4876,-1.4875,-1.4874,-1.4874,-1.4635,-1.4666,-1.4683,-1.4717,-1.4731,-1.4751,-1.4781,-1.4786,-1.4816,-1.485,-1.4844,-1.4885,-1.4904,-1.4943,-1.4956,-1.4988,-1.4972,-1.4988,-1.4992,-1.4996,-1.5,-1.4887,-1.4993,-1.4993,-1.4993,-1.4992,-1.4992,0,-1.4744,-1.4754,-1.4784,-1.4814,-1.484,-1.4823,-1.4845,-1.4868,-1.4904,-1.4922,-1.4949,-1.4991,-1.5024,-1.5033,-1.5065,-1.5088,-1.5082,-1.5097,-1.5095,-1.5098,-1.5013,-1.5,-1.5101,-1.5101,-1.5101,-1.5101,-1.5101,-1.5101,-1.4804,-1.4855,-1.4854,-1.4912,-1.4921,-1.4961,-1.4975,-1.4993,-1.5007,-1.5054,-1.5081,-1.5086,-1.5101,-1.5133,-1.5163,-1.5165,-1.5177,-1.5195,-1.5194,-1.5115,-1.5104,-1.5093,-1.5081,-1.5197,-1.5197,-1.5275,-1.5276,-1.5277]},{"header":{"parameterUnit":"m.s-1","parameterCategory":1,"la1":30.2991,"la2":30.254,"lo1":-89.0895,"lo2":-89.0444,"dy":0.0017,"dx":0.0017,"nx":28,"ny":28,"refTime":"2025-11-19T09:00:00:Z","depth":0,"parameterNumber":3,"parameterNumberName":"V-component_of_WINDS"},"data":[0,0,0,0,0,0,0,0,0,0,0,0,0,0,0,0,0,0,0,0,0,0,0,0,0,0,0,0,0,0,0,0,0,0,0,0,0,0,0,0,0,0,0,0,0,0,0,0,0,0,0,0,0,0,0,0,0,0,-0.6561,-0.6562,0,-0.6598,-0.6599,-0.6599,-0.6582,-0.6582,-0.6581,-0.658,-0.6618,-0.662,-0.6622,0,0,0,0,0,0,0,0,0,0,0,0,0,-0.6476,-0.6478,-0.6561,-0.6562,-0.6562,-0.6598,-0.6599,-0.6599,-0.6583,-0.6581,-0.658,-0.6579,-0.6618,-0.662,-0.6622,0,0,0,0,0,0,0,0,0,0,0,0,0,-0.6513,-0.6478,-0.6561,-0.6558,-0.6558,-0.6598,-0.6599,-0.6599,-0.6583,-0.6581,-0.658,-0.6579,-0.6617,-0.662,-0.6623,-0.6668,0,0,-0.6631,-0.6632,0,0,0,0,0,0,0,0,-0.6511,-0.6516,-0.6558,-0.6559,-0.6559,-0.6584,-0.6583,-0.6622,-0.6583,-0.6574,-0.658,-0.6578,-0.6608,-0.6612,-0.6622,-0.6669,-0.6671,-0.6631,-0.6633,-0.6634,-0.6635,0,0,0,0,0,0,0,-0.6509,-0.6515,-0.6576,-0.6559,-0.6559,-0.6555,-0.6559,-0.659,-0.6598,-0.6574,-0.6573,-0.6578,-0.6608,-0.6619,-0.6622,-0.6672,-0.6631,-0.6634,-0.6636,-0.6637,-0.6757,-0.6758,0,0,0,0,0,0,-0.6506,-0.6513,-0.6575,-0.6577,-0.6531,-0.6558,-0.6562,-0.6578,-0.6598,-0.66,-0.6579,-0.6577,-0.6615,-0.6619,-0.6624,-0.6677,-0.6634,-0.6637,-0.6639,-0.6755,-0.6757,-0.6759,0,0,0,0,0,0,-0.6504,-0.6512,-0.6573,-0.6545,-0.6552,-0.6561,-0.6578,-0.6579,-0.659,-0.6601,-0.6603,-0.6589,-0.6614,-0.662,-0.6656,-0.6678,-0.6638,-0.6641,-0.6753,-0.6756,-0.6758,-0.6784,0,0,0,0,0,0,-0.6502,-0.6511,-0.6529,-0.6545,-0.6554,-0.6606,-0.658,-0.6581,-0.6595,-0.6592,-0.6611,-0.6612,-0.6613,-0.6652,-0.6659,-0.6681,-0.6643,-0.6751,-0.6754,-0.6757,-0.6781,-0.6787,-0.6792,0,0,0,0,0,-0.6499,-0.6535,-0.653,-0.6537,-0.6576,-0.6607,-0.6612,-0.6612,-0.6597,-0.6614,-0.6621,-0.6612,-0.6674,-0.6656,-0.6664,-0.6687,-0.675,-0.6754,-0.6757,-0.6779,-0.6786,-0.6792,0,0,0,0,0,0,-0.6522,-0.6537,-0.6531,-0.6574,-0.6589,-0.6604,-0.6626,-0.6619,-0.664,-0.6637,-0.6636,-0.664,-0.6678,-0.6686,-0.6665,-0.6731,-0.671,-0.6715,-0.6724,-0.6731,-0.6736,-0.6733,-0.6645,0,0,0,0,0,-0.6532,-0.6556,-0.6568,-0.6604,-0.6612,-0.6618,-0.6632,-0.663,-0.6646,-0.6652,-0.6662,-0.6678,-0.6701,-0.6716,-0.6738,-0.6782,-0.6786,-0.6802,-0.6807,-0.6811,-0.6816,-0.6838,-0.6846,-0.677,-0.677,-0.6769,0,0,-0.6553,-0.6564,-0.658,-0.6609,-0.6621,-0.6645,-0.6623,-0.6651,-0.6669,-0.6657,-0.6692,-0.6699,-0.6717,-0.6757,-0.6775,-0.6765,-0.6837,-0.6816,-0.6819,-0.6821,-0.6843,-0.685,-0.6856,-0.6772,-0.6771,-0.6771,0,0,-0.6603,-0.6615,-0.6646,-0.6657,-0.6675,-0.6678,-0.6685,-0.6701,-0.6705,-0.674,-0.6731,-0.6752,-0.6793,-0.6805,-0.6817,-0.687,-0.6862,-0.6877,-0.6905,-0.6927,-0.6933,-0.6938,-0.6956,-0.6963,-0.6882,-0.6882,-0.6882,0,-0.6628,-0.6664,-0.6663,-0.669,-0.6703,-0.6692,-0.6723,-0.6735,-0.6759,-0.6768,-0.6756,-0.6805,-0.6816,-0.6858,-0.6871,-0.6881,-0.6889,-0.6875,-0.6932,-0.6937,-0.6942,-0.696,-0.6967,-0.6883,-0.6883,-0.6883,-0.6883,0,-0.6692,-0.6718,-0.6741,-0.6763,-0.6779,-0.6808,-0.681,-0.6826,-0.6823,-0.6827,-0.6862,-0.6875,-0.6899,-0.6909,-0.6906,-0.695,-0.6943,-0.6932,-0.6911,-0.6951,-0.6967,-0.6974,-0.6886,-0.6885,-0.6885,-0.6884,0,0,-0.676,-0.6779,-0.6788,-0.6797,-0.6815,-0.6835,-0.6863,-0.6885,-0.6899,-0.6915,-0.6939,-0.6972,-0.6961,-0.6974,-0.6973,-0.6992,-0.7032,-0.6978,-0.6978,-0.6987,-0.7081,-0.7089,-0.7097,-0.7027,-0.7028,-0.7029,-0.7079,0,-0.6811,-0.686,-0.6859,-0.6905,-0.6928,-0.6917,-0.6941,-0.6954,-0.6959,-0.6979,-0.6984,-0.7007,-0.6991,-0.6999,-0.7017,-0.7024,-0.7051,-0.702,-0.7048,-0.7049,-0.7044,-0.7106,-0.7115,-0.7161,-0.7085,-0.7087,-0.7087,0,-0.6878,-0.6896,-0.6944,-0.6956,-0.6966,-0.6988,-0.7008,-0.7027,-0.7042,-0.7043,-0.7057,-0.7052,-0.708,-0.7058,-0.7096,-0.7075,-0.7087,-0.7091,-0.7093,-0.7096,-0.7071,-0.711,-0.7176,-0.7183,-0.7098,-0.7097,-0.7096,0,-0.6922,-0.6957,-0.699,-0.6999,-0.7015,-0.703,-0.7038,-0.7051,-0.7064,-0.7081,-0.7089,-0.711,-0.7121,-0.7137,-0.7138,-0.7122,-0.7176,-0.7154,-0.7178,-0.7178,-0.719,-0.7189,-0.7259,-0.7198,-0.7198,-0.7198,-0.7198,0,-0.6979,-0.7009,-0.701,-0.703,-0.7062,-0.706,-0.7092,-0.7098,-0.7109,-0.713,-0.7122,-0.7142,-0.7141,-0.7161,-0.7162,-0.7193,-0.7198,-0.72,-0.72,-0.7201,-0.7201,-0.7208,-0.7205,-0.7199,-0.7199,-0.7199,-0.7198,0,-0.7033,-0.7035,-0.707,-0.7082,-0.7085,-0.7109,-0.7119,-0.7138,-0.7141,-0.7167,-0.7173,-0.7178,-0.7201,-0.7203,-0.723,-0.723,-0.7267,-0.7264,-0.7263,-0.7262,-0.7285,-0.7283,-0.7362,-0.7372,-0.7305,-0.7306,-0.7306,0,-0.707,-0.7092,-0.7106,-0.7119,-0.7127,-0.7148,-0.7161,-0.7159,-0.7173,-0.719,-0.7207,-0.7229,-0.7247,-0.7284,-0.729,-0.731,-0.7306,-0.7333,-0.7309,-0.7309,-0.7306,-0.7305,-0.7306,-0.7337,-0.7338,-0.7339,-0.7339,0,-0.7134,-0.7134,-0.7153,-0.7171,-0.7187,-0.7202,-0.7216,-0.7227,-0.7227,-0.7243,-0.7266,-0.7279,-0.7306,-0.7327,-0.7347,-0.7354,-0.7347,-0.7346,-0.7353,-0.7354,-0.7352,-0.7353,-0.7275,-0.7345,-0.7344,-0.7344,-0.7343,-0.7343,-0.7181,-0.7199,-0.7211,-0.7232,-0.7242,-0.7255,-0.7273,-0.7277,-0.7296,-0.7318,-0.7315,-0.7341,-0.7353,-0.7378,-0.7387,-0.7407,-0.7398,-0.7407,-0.741,-0.7412,-0.7414,-0.7349,-0.741,-0.741,-0.741,-0.741,-0.741,0,-0.7244,-0.7251,-0.727,-0.7289,-0.7305,-0.7296,-0.731,-0.7324,-0.7347,-0.7359,-0.7376,-0.7401,-0.7422,-0.7429,-0.7449,-0.7463,-0.746,-0.7468,-0.7467,-0.7469,-0.7421,-0.7413,-0.747,-0.747,-0.747,-0.747,-0.747,-0.747,-0.7279,-0.731,-0.731,-0.7345,-0.7352,-0.7376,-0.7385,-0.7396,-0.7406,-0.7435,-0.7452,-0.7456,-0.7466,-0.7486,-0.7504,-0.7506,-0.7513,-0.7523,-0.7523,-0.7478,-0.7472,-0.7466,-0.7459,-0.7525,-0.7525,-0.7569,-0.7569,-0.7569]}]]